| time (UTC) | temp F | wind direction | speed knots | gust knots | rain 1hr in | rain 24hr in | rain mn in | humidity % | barometer mb |
| 20260505052620 | 56 | 86 | 1.7 | 2.6 | 0.00 | 0.00 | 0.00 | 89 | 1012.6 |
| 20260505052118 | 56 | 263 | 1.7 | 2.6 | 0.00 | 0.00 | 0.00 | 89 | 1012.5 |
| 20260505051614 | 57 | 75 | 2.6 | 2.6 | 0.00 | 0.00 | 0.00 | 88 | 1012.7 |
| 20260505051113 | 57 | 242 | 2.6 | 5.2 | 0.00 | 0.00 | 0.00 | 88 | 1012.6 |
| 20260505050610 | 57 | 232 | 2.6 | 2.6 | 0.00 | 0.00 | 0.00 | 88 | 1012.5 |
| 20260505050108 | 57 | 229 | 2.6 | 2.6 | 0.00 | 0.00 | 0.00 | 88 | 1012.6 |
| 20260505041538 | 57 | 164 | 3.5 | 4.3 | 0.00 | 0.00 | 0.00 | 86 | 1012.8 |
| 20260505041035 | 57 | 154 | 2.6 | 4.3 | 0.00 | 0.00 | 0.00 | 86 | 1012.7 |
| 20260505040532 | 58 | 246 | 2.6 | 5.2 | 0.00 | 0.00 | 0.00 | 85 | 1012.6 |
| 20260505040030 | 58 | 139 | 5.2 | 7.0 | 0.00 | 0.00 | 0.00 | 85 | 1012.7 |
| 20260505035525 | 58 | 57 | 4.3 | 5.2 | 0.00 | 0.00 | 0.00 | 84 | 1012.6 |
| 20260505035022 | 58 | 103 | 7.8 | 12.2 | 0.00 | 0.00 | 0.00 | 85 | 1012.6 |
| 20260505034519 | 58 | 107 | 4.3 | 5.2 | 0.00 | 0.00 | 0.00 | 85 | 1012.7 |
| 20260505034016 | 58 | 161 | 2.6 | 5.2 | 0.00 | 0.00 | 0.00 | 85 | 1012.7 |
| 20260505033513 | 58 | 62 | 3.5 | 4.3 | 0.00 | 0.00 | 0.00 | 85 | 1012.6 |
| 20260505033011 | 58 | 224 | 3.5 | 4.3 | 0.00 | 0.00 | 0.00 | 85 | 1012.6 |
| 20260505032508 | 58 | 133 | 4.3 | 5.2 | 0.00 | 0.00 | 0.00 | 86 | 1012.8 |
| 20260505032005 | 57 | 138 | 4.3 | 5.2 | 0.00 | 0.00 | 0.00 | 86 | 1012.9 |
| 20260505031502 | 57 | 137 | 2.6 | 4.3 | 0.00 | 0.00 | 0.00 | 86 | 1012.8 |
| 20260505030958 | 57 | 138 | 2.6 | 4.3 | 0.00 | 0.00 | 0.00 | 86 | 1012.8 |
| 20260505030455 | 57 | 212 | 2.6 | 2.6 | 0.00 | 0.00 | 0.00 | 86 | 1012.8 |
| 20260505025950 | 57 | 231 | 2.6 | 4.3 | 0.00 | 0.00 | 0.00 | 86 | 1012.6 |
| 20260505025447 | 57 | 264 | 2.6 | 2.6 | 0.00 | 0.00 | 0.00 | 86 | 1012.6 |
| 20260505024946 | 58 | 219 | 2.6 | 4.3 | 0.00 | 0.00 | 0.00 | 85 | 1012.9 |
| 20260505024443 | 57 | 200 | 2.6 | 2.6 | 0.00 | 0.00 | 0.00 | 85 | 1012.8 |
| 20260505023940 | 57 | 101 | 3.5 | 4.3 | 0.00 | 0.00 | 0.00 | 85 | 1013.0 |
| 20260505023437 | 57 | 41 | 1.7 | 1.7 | 0.00 | 0.00 | 0.00 | 85 | 1013.2 |
| 20260505022934 | 57 | 223 | 0.9 | 1.7 | 0.00 | 0.00 | 0.00 | 85 | 1013.0 |
| 20260505022432 | 58 | 203 | 3.5 | 4.3 | 0.00 | 0.00 | 0.00 | 84 | 1013.0 |
| 20260505021929 | 58 | 168 | 3.5 | 4.3 | 0.00 | 0.00 | 0.00 | 84 | 1013.1 |
| 20260505021425 | 58 | 57 | 3.5 | 5.2 | 0.00 | 0.00 | 0.00 | 83 | 1012.9 |
| 20260505020921 | 58 | 19 | 2.6 | 2.6 | 0.00 | 0.00 | 0.00 | 82 | 1012.9 |
| 20260505020416 | 58 | 352 | 3.5 | 4.3 | 0.00 | 0.00 | 0.00 | 81 | 1012.9 |
| 20260505015913 | 59 | 154 | 5.2 | 6.1 | 0.00 | 0.00 | 0.00 | 80 | 1013.1 |
| 20260505015411 | 59 | 116 | 3.5 | 5.2 | 0.00 | 0.00 | 0.00 | 79 | 1012.8 |
| 20260505014908 | 59 | 0 | 2.6 | 4.3 | 0.00 | 0.00 | 0.00 | 78 | 1013.1 |
| 20260505014405 | 59 | 118 | 6.1 | 7.8 | 0.00 | 0.00 | 0.00 | 77 | 1013.0 |
| 20260505013902 | 59 | 131 | 5.2 | 7.0 | 0.00 | 0.00 | 0.00 | 76 | 1012.9 |
| 20260505013358 | 59 | 245 | 2.6 | 2.6 | 0.00 | 0.00 | 0.00 | 76 | 1013.0 |
| 20260505012857 | 59 | 80 | 4.3 | 6.1 | 0.00 | 0.00 | 0.00 | 76 | 1012.9 |
| 20260505012354 | 60 | 202 | 2.6 | 2.6 | 0.00 | 0.00 | 0.00 | 75 | 1012.6 |
| 20260505011850 | 60 | 187 | 3.5 | 4.3 | 0.00 | 0.00 | 0.00 | 74 | 1012.8 |
| 20260505011347 | 60 | 127 | 3.5 | 5.2 | 0.00 | 0.00 | 0.00 | 74 | 1012.9 |
| 20260505010843 | 60 | 114 | 3.5 | 4.3 | 0.00 | 0.00 | 0.00 | 73 | 1012.7 |
| 20260505010339 | 61 | 79 | 3.5 | 4.3 | 0.00 | 0.00 | 0.00 | 72 | 1012.7 |
| 20260505005836 | 61 | 139 | 4.3 | 6.1 | 0.00 | 0.00 | 0.00 | 72 | 1012.7 |
| 20260505005332 | 61 | 111 | 2.6 | 5.2 | 0.00 | 0.00 | 0.00 | 71 | 1012.5 |
| 20260505004830 | 61 | 226 | 2.6 | 4.3 | 0.00 | 0.00 | 0.00 | 71 | 1012.5 |
| 20260505004326 | 61 | 220 | 2.6 | 2.6 | 0.00 | 0.00 | 0.00 | 71 | 1012.5 |
| 20260505003824 | 61 | 272 | 3.5 | 5.2 | 0.00 | 0.00 | 0.00 | 71 | 1012.4 |
| 20260505003321 | 61 | 96 | 5.2 | 7.0 | 0.00 | 0.00 | 0.00 | 71 | 1012.2 |
| 20260505002817 | 61 | 76 | 4.3 | 6.1 | 0.00 | 0.00 | 0.00 | 70 | 1012.4 |
| 20260505002314 | 61 | 83 | 5.2 | 6.1 | 0.00 | 0.00 | 0.00 | 70 | 1012.0 |
| 20260505001812 | 62 | 98 | 3.5 | 4.3 | 0.00 | 0.00 | 0.00 | 70 | 1012.2 |
| 20260505001309 | 62 | 119 | 2.6 | 4.3 | 0.00 | 0.00 | 0.00 | 69 | 1012.3 |
| 20260505000806 | 61 | 163 | 4.3 | 6.1 | 0.00 | 0.00 | 0.00 | 70 | 1012.3 |
| 20260505000304 | 61 | 138 | 2.6 | 4.3 | 0.00 | 0.00 | 0.00 | 70 | 1012.2 |
| 20260504235800 | 61 | 58 | 3.5 | 4.3 | 0.00 | 0.00 | 0.00 | 71 | 1012.3 |
| 20260504235256 | 61 | 191 | 4.3 | 6.1 | 0.00 | 0.00 | 0.00 | 71 | 1012.3 |
| 20260504234754 | 61 | 120 | 3.5 | 5.2 | 0.00 | 0.00 | 0.00 | 71 | 1012.1 |
| 20260504234252 | 61 | 101 | 3.5 | 5.2 | 0.00 | 0.00 | 0.00 | 71 | 1012.0 |
| 20260504233747 | 61 | 222 | 1.7 | 1.7 | 0.00 | 0.00 | 0.00 | 71 | 1012.2 |
| 20260504233243 | 61 | 140 | 3.5 | 4.3 | 0.00 | 0.00 | 0.00 | 72 | 1012.2 |
| 20260504232740 | 61 | 110 | 5.2 | 6.1 | 0.00 | 0.00 | 0.00 | 72 | 1012.1 |
| 20260504232237 | 61 | 90 | 5.2 | 6.1 | 0.00 | 0.00 | 0.00 | 72 | 1012.1 |
| 20260504231734 | 61 | 199 | 3.5 | 5.2 | 0.00 | 0.00 | 0.00 | 72 | 1012.0 |
| 20260504231231 | 61 | 142 | 5.2 | 5.2 | 0.00 | 0.00 | 0.00 | 72 | 1012.1 |
| 20260504230726 | 61 | 139 | 2.6 | 4.3 | 0.00 | 0.00 | 0.00 | 72 | 1012.1 |
| 20260504230225 | 61 | 104 | 3.5 | 4.3 | 0.00 | 0.00 | 0.00 | 72 | 1012.2 |
| 20260504225724 | 61 | 46 | 2.6 | 4.3 | 0.00 | 0.00 | 0.00 | 72 | 1012.4 |
| 20260504225220 | 61 | 165 | 5.2 | 7.0 | 0.00 | 0.00 | 0.00 | 72 | 1012.1 |
| 20260504224717 | 61 | 119 | 2.6 | 2.6 | 0.00 | 0.00 | 0.00 | 73 | 1012.1 |
| 20260504224214 | 61 | 215 | 1.7 | 1.7 | 0.00 | 0.00 | 0.00 | 72 | 1012.1 |
| 20260504223710 | 61 | 212 | 1.7 | 1.7 | 0.00 | 0.00 | 0.00 | 73 | 1012.0 |
| 20260504223206 | 61 | 237 | 1.7 | 2.6 | 0.00 | 0.00 | 0.00 | 73 | 1012.0 |
| 20260504222703 | 62 | 261 | 0.0 | 0.9 | 0.00 | 0.00 | 0.00 | 72 | 1012.1 |
| 20260504222200 | 62 | 30 | 3.5 | 4.3 | 0.00 | 0.00 | 0.00 | 71 | 1012.3 |
| 20260504221657 | 62 | 239 | 2.6 | 4.3 | 0.00 | 0.00 | 0.00 | 71 | 1012.0 |
| 20260504221155 | 62 | 238 | 2.6 | 2.6 | 0.00 | 0.00 | 0.00 | 70 | 1012.1 |
| 20260504220651 | 62 | 213 | 3.5 | 4.3 | 0.00 | 0.00 | 0.00 | 70 | 1012.1 |
| 20260504220149 | 62 | 206 | 2.6 | 4.3 | 0.00 | 0.00 | 0.00 | 70 | 1012.0 |
| 20260504215644 | 62 | 153 | 4.3 | 6.1 | 0.00 | 0.00 | 0.00 | 69 | 1012.1 |
| 20260504215142 | 63 | 101 | 5.2 | 8.7 | 0.00 | 0.00 | 0.00 | 68 | 1011.9 |
| 20260504214638 | 63 | 53 | 2.6 | 2.6 | 0.00 | 0.00 | 0.00 | 68 | 1012.1 |
| 20260504214134 | 63 | 201 | 2.6 | 4.3 | 0.00 | 0.00 | 0.00 | 68 | 1012.0 |
| 20260504213631 | 63 | 262 | 3.5 | 4.3 | 0.00 | 0.00 | 0.00 | 68 | 1012.1 |
| 20260504213128 | 63 | 65 | 3.5 | 4.3 | 0.00 | 0.00 | 0.00 | 69 | 1011.9 |
| 20260504212624 | 63 | 228 | 2.6 | 4.3 | 0.00 | 0.00 | 0.00 | 69 | 1012.1 |
| 20260504212121 | 63 | 60 | 5.2 | 8.7 | 0.00 | 0.00 | 0.00 | 68 | 1012.1 |
| 20260504211619 | 63 | 87 | 3.5 | 5.2 | 0.00 | 0.00 | 0.00 | 69 | 1012.0 |
| 20260504211115 | 63 | 94 | 4.3 | 5.2 | 0.00 | 0.00 | 0.00 | 68 | 1012.0 |
| 20260504210613 | 63 | 129 | 8.7 | 12.2 | 0.00 | 0.00 | 0.00 | 67 | 1011.9 |
| 20260504210109 | 63 | 153 | 5.2 | 7.8 | 0.00 | 0.00 | 0.00 | 66 | 1012.0 |
| 20260504205606 | 64 | 118 | 5.2 | 6.1 | 0.00 | 0.00 | 0.00 | 66 | 1011.9 |
| 20260504205104 | 64 | 93 | 6.1 | 7.8 | 0.00 | 0.00 | 0.00 | 65 | 1012.0 |
| 20260504204602 | 65 | 114 | 6.1 | 7.0 | 0.00 | 0.00 | 0.00 | 63 | 1012.0 |
| 20260504204100 | 65 | 323 | 2.6 | 5.2 | 0.00 | 0.00 | 0.00 | 63 | 1012.2 |
| 20260504203559 | 64 | 96 | 5.2 | 7.8 | 0.00 | 0.00 | 0.00 | 63 | 1012.1 |
| 20260504203056 | 65 | 46 | 6.1 | 7.8 | 0.00 | 0.00 | 0.00 | 63 | 1012.3 |
| 20260504202551 | 65 | 146 | 4.3 | 5.2 | 0.00 | 0.00 | 0.00 | 63 | 1012.1 |
| 20260504202048 | 64 | 63 | 6.1 | 7.8 | 0.00 | 0.00 | 0.00 | 64 | 1012.1 |
| 20260504201545 | 65 | 120 | 6.1 | 7.8 | 0.00 | 0.00 | 0.00 | 63 | 1012.3 |
| 20260504201043 | 65 | 131 | 3.5 | 5.2 | 0.00 | 0.00 | 0.00 | 63 | 1012.1 |
| 20260504200539 | 65 | 72 | 5.2 | 7.0 | 0.00 | 0.00 | 0.00 | 62 | 1012.5 |
| 20260504200036 | 66 | 122 | 5.2 | 7.8 | 0.00 | 0.00 | 0.00 | 62 | 1012.3 |
| 20260504195532 | 65 | 40 | 1.7 | 2.6 | 0.00 | 0.00 | 0.00 | 63 | 1012.4 |
| 20260504195029 | 66 | 101 | 5.2 | 7.0 | 0.00 | 0.00 | 0.00 | 62 | 1012.4 |
| 20260504194525 | 65 | 96 | 6.1 | 8.7 | 0.00 | 0.00 | 0.00 | 61 | 1012.4 |
| 20260504194020 | 65 | 114 | 2.6 | 4.3 | 0.00 | 0.00 | 0.00 | 63 | 1012.3 |
| 20260504193518 | 65 | 136 | 6.1 | 7.0 | 0.00 | 0.00 | 0.00 | 63 | 1012.4 |
| 20260504193017 | 66 | 55 | 1.7 | 4.3 | 0.00 | 0.00 | 0.00 | 64 | 1012.6 |
| 20260504192514 | 66 | 176 | 0.9 | 1.7 | 0.00 | 0.00 | 0.00 | 62 | 1012.5 |
| 20260504192012 | 65 | 292 | 2.6 | 2.6 | 0.00 | 0.00 | 0.00 | 64 | 1012.7 |
| 20260504191510 | 65 | 143 | 4.3 | 7.0 | 0.00 | 0.00 | 0.00 | 63 | 1012.6 |
| 20260504191005 | 66 | 152 | 4.3 | 7.0 | 0.00 | 0.00 | 0.00 | 61 | 1012.7 |
| 20260504190501 | 66 | 178 | 4.3 | 6.1 | 0.00 | 0.00 | 0.00 | 61 | 1012.7 |
| 20260504185958 | 67 | 135 | 2.6 | 4.3 | 0.00 | 0.00 | 0.00 | 61 | 1012.9 |
| 20260504185455 | 67 | 154 | 3.5 | 5.2 | 0.00 | 0.00 | 0.00 | 60 | 1012.9 |
| 20260504184952 | 67 | 40 | 4.3 | 5.2 | 0.00 | 0.00 | 0.00 | 61 | 1012.9 |
| 20260504184447 | 67 | 183 | 3.5 | 5.2 | 0.00 | 0.00 | 0.00 | 60 | 1013.1 |
| 20260504183943 | 67 | 245 | 3.5 | 5.2 | 0.00 | 0.00 | 0.00 | 59 | 1012.9 |
| 20260504183440 | 66 | 191 | 3.5 | 6.1 | 0.00 | 0.00 | 0.00 | 61 | 1013.0 |
| 20260504182938 | 67 | 105 | 2.6 | 7.8 | 0.00 | 0.00 | 0.00 | 61 | 1013.1 |
| 20260504182435 | 66 | 136 | 4.3 | 5.2 | 0.00 | 0.00 | 0.00 | 62 | 1013.2 |
| 20260504181932 | 66 | 161 | 6.1 | 8.7 | 0.00 | 0.00 | 0.00 | 60 | 1013.3 |
| 20260504181429 | 67 | 99 | 4.3 | 8.7 | 0.00 | 0.00 | 0.00 | 59 | 1013.2 |
| 20260504180928 | 66 | 341 | 3.5 | 6.1 | 0.00 | 0.00 | 0.00 | 60 | 1013.4 |
| 20260504180426 | 66 | 194 | 3.5 | 5.2 | 0.00 | 0.00 | 0.00 | 59 | 1013.3 |
| 20260504175924 | 68 | 145 | 2.6 | 4.3 | 0.00 | 0.00 | 0.00 | 59 | 1013.5 |
| 20260504175421 | 68 | 151 | 1.7 | 4.3 | 0.00 | 0.00 | 0.00 | 61 | 1013.5 |
| 20260504174918 | 68 | 185 | 2.6 | 2.6 | 0.00 | 0.00 | 0.00 | 59 | 1013.7 |
| 20260504174416 | 68 | 72 | 3.5 | 5.2 | 0.00 | 0.00 | 0.00 | 60 | 1013.4 |
| 20260504173913 | 68 | 159 | 1.7 | 4.3 | 0.00 | 0.00 | 0.00 | 59 | 1013.5 |
| 20260504173409 | 67 | 60 | 4.3 | 7.0 | 0.00 | 0.00 | 0.00 | 58 | 1013.7 |
| 20260504172907 | 67 | 141 | 2.6 | 2.6 | 0.00 | 0.00 | 0.00 | 61 | 1013.9 |
| 20260504172403 | 67 | 245 | 4.3 | 6.1 | 0.00 | 0.00 | 0.00 | 61 | 1014.0 |
| 20260504171859 | 68 | 119 | 4.3 | 6.1 | 0.00 | 0.00 | 0.00 | 58 | 1013.6 |
| 20260504171356 | 68 | 37 | 4.3 | 5.2 | 0.00 | 0.00 | 0.00 | 53 | 1013.9 |
| 20260504170853 | 68 | 32 | 3.5 | 5.2 | 0.00 | 0.00 | 0.00 | 58 | 1013.7 |
| 20260504170350 | 67 | 191 | 3.5 | 4.3 | 0.00 | 0.00 | 0.00 | 58 | 1013.9 |
| 20260504160309 | 67 | 165 | 4.3 | 5.2 | 0.00 | 0.00 | 0.00 | 60 | 1014.5 |
| 20260504150734 | 66 | 211 | 4.3 | 7.0 | 0.00 | 0.00 | 0.00 | 47 | 1015.1 |
| 20260504150231 | 66 | 131 | 4.3 | 6.1 | 0.00 | 0.00 | 0.00 | 47 | 1014.8 |
| 20260504141200 | 64 | 128 | 5.2 | 6.1 | 0.00 | 0.00 | 0.00 | 46 | 1015.4 |
| 20260504140657 | 64 | 143 | 5.2 | 6.1 | 0.00 | 0.00 | 0.00 | 46 | 1015.4 |
| 20260504140152 | 64 | 125 | 7.0 | 9.6 | 0.00 | 0.00 | 0.00 | 45 | 1015.3 |
| 20260504130620 | 61 | 109 | 4.3 | 5.2 | 0.00 | 0.00 | 0.00 | 53 | 1015.7 |
| 20260504130117 | 61 | 227 | 2.6 | 4.3 | 0.00 | 0.00 | 0.00 | 54 | 1015.8 |
| 20260504110509 | 53 | 234 | 1.7 | 1.7 | 0.00 | 0.00 | 0.00 | 76 | 1016.7 |
| 20260504100431 | 49 | 211 | 0.9 | 1.7 | 0.00 | 0.00 | 0.00 | 79 | 1016.7 |
| 20260504081824 | 50 | 234 | 1.7 | 1.7 | 0.00 | 0.00 | 0.00 | 75 | 1016.7 |
| 20260504081320 | 50 | 286 | 0.9 | 1.7 | 0.00 | 0.00 | 0.00 | 75 | 1016.8 |
| 20260504080816 | 50 | 231 | 1.7 | 1.7 | 0.00 | 0.00 | 0.00 | 74 | 1016.8 |
| 20260504080314 | 50 | 226 | 1.7 | 1.7 | 0.00 | 0.00 | 0.00 | 74 | 1016.4 |
| 20260504070240 | 49 | 222 | 1.7 | 1.7 | 0.00 | 0.00 | 0.00 | 72 | 1016.3 |
| 20260504060201 | 50 | 155 | 2.6 | 2.6 | 0.00 | 0.00 | 0.00 | 69 | 1016.0 |